Precipitable_Water
0.43 0.39 0.38 0.40 0.38 0.45 0.47 0.51 0.62 0.66 0.72 0.74 0.73 0.76 0.83 0.84 0.92 0.94 0.87 1.01 0.85 0.74 0.80 0.89 0.96 0.83 0.83 0.79 0.67 0.76 0.71 0.72 0.69 0.56 0.51 0.50 0.46 0.47 0.44 0.46 0.41 0.37 0.38 0.37 0.40 0.35 0.27 0.49 0.46 0.34 0.43 0.47 0.43 0.41
0.41 0.41 0.39 0.40 0.39 0.41 0.45 0.50 0.60 0.64 0.68 0.70 0.70 0.76 0.81 0.82 0.89 0.96 0.80 1.00 1.02 0.80 0.77 0.94 0.97 1.02 0.94 0.87 0.78 0.77 0.72 0.71 0.70 0.61 0.59 0.58 0.50 0.51 0.46 0.37 0.53 0.41 0.44 0.40 0.40 0.40 0.54 0.54 0.47 0.47 0.49 0.45 0.43 0.43
0.42 0.41 0.41 0.40 0.40 0.39 0.46 0.48 0.61 0.63 0.68 0.68 0.70 0.74 0.81 0.83 0.86 0.95 0.84 0.92 0.89 0.75 0.75 0.80 0.78 0.89 0.98 0.98 1.00 0.71 0.78 0.79 0.72 0.76 0.66 0.63 0.52 0.52 0.42 0.41 0.46 0.48 0.55 0.45 0.46 0.49 0.52 0.52 0.52 0.55 0.51 0.47 0.48 0.47
0.47 0.46 0.45 0.43 0.41 0.40 0.45 0.46 0.59 0.64 0.66 0.68 0.68 0.70 0.78 0.82 0.88 0.92 0.85 0.91 0.85 0.75 0.60 0.65 0.91 0.84 0.97 0.95 0.96 0.86 0.80 0.84 0.81 0.77 0.66 0.59 0.50 0.56 0.47 0.48 0.44 0.50 0.50 0.46 0.43 0.48 0.50 0.51 0.52 0.52 0.52 0.52 0.48 0.48
0.50 0.49 0.49 0.46 0.44 0.40 0.42 0.47 0.54 0.63 0.65 0.67 0.67 0.69 0.76 0.80 0.83 0.90 0.92 0.96 0.89 0.71 0.57 0.63 0.81 0.86 0.91 0.89 0.84 0.88 0.81 0.77 0.72 0.62 0.58 0.53 0.58 0.57 0.56 0.53 0.45 0.52 0.49 0.44 0.39 0.49 0.47 0.47 0.50 0.51 0.47 0.48 0.51 0.47
0.49 0.50 0.51 0.50 0.47 0.42 0.41 0.47 0.48 0.58 0.62 0.65 0.67 0.71 0.74 0.80 0.84 0.83 0.68 0.91 0.91 0.84 0.65 0.52 0.73 0.76 0.84 0.87 0.82 0.78 0.76 0.72 0.67 0.62 0.60 0.62 0.70 0.59 0.47 0.41 0.48 0.49 0.52 0.53 0.47 0.51 0.50 0.50 0.49 0.51 0.47 0.45 0.45 0.45
0.49 0.48 0.50 0.53 0.51 0.44 0.42 0.49 0.47 0.55 0.55 0.57 0.61 0.68 0.71 0.78 0.78 0.69 0.65 0.78 0.90 0.80 0.61 0.51 0.53 0.70 0.78 0.77 0.77 0.77 0.80 0.74 0.68 0.64 0.60 0.59 0.57 0.55 0.45 0.36 0.46 0.49 0.50 0.51 0.50 0.49 0.43 0.46 0.44 0.47 0.45 0.44 0.46 0.49
0.48 0.48 0.49 0.51 0.52 0.46 0.44 0.49 0.50 0.52 0.53 0.56 0.65 0.70 0.72 0.78 0.81 0.73 0.85 0.87 0.84 0.69 0.65 0.48 0.46 0.55 0.71 0.61 0.57 0.70 0.64 0.66 0.64 0.61 0.58 0.52 0.53 0.50 0.36 0.40 0.43 0.45 0.45 0.48 0.49 0.47 0.44 0.46 0.47 0.43 0.43 0.46 0.44 0.44
0.48 0.49 0.48 0.49 0.52 0.47 0.45 0.50 0.52 0.53 0.54 0.61 0.67 0.69 0.69 0.65 0.60 0.67 0.85 0.87 0.83 0.67 0.50 0.48 0.41 0.40 0.64 0.56 0.59 0.62 0.62 0.49 0.58 0.49 0.48 0.47 0.42 0.33 0.35 0.36 0.35 0.37 0.37 0.37 0.40 0.42 0.42 0.38 0.35 0.36 0.36 0.34 0.32 0.34
0.53 0.52 0.51 0.50 0.51 0.49 0.47 0.51 0.51 0.52 0.57 0.65 0.62 0.52 0.46 0.60 0.78 0.79 0.70 0.60 0.60 0.60 0.57 0.47 0.51 0.43 0.53 0.52 0.50 0.50 0.52 0.44 0.36 0.40 0.47 0.36 0.30 0.37 0.38 0.35 0.35 0.35 0.35 0.35 0.31 0.29 0.30 0.30 0.30 0.30 0.30 0.31 0.32 0.33
0.52 0.54 0.53 0.50 0.51 0.50 0.49 0.53 0.52 0.54 0.61 0.54 0.46 0.46 0.61 0.76 0.65 0.57 0.47 0.46 0.47 0.43 0.50 0.49 0.47 0.42 0.56 0.44 0.43 0.47 0.41 0.41 0.31 0.35 0.34 0.28 0.24 0.30 0.35 0.36 0.34 0.32 0.31 0.32 0.32 0.31 0.30 0.29 0.27 0.28 0.28 0.30 0.31 0.32
0.50 0.51 0.51 0.50 0.51 0.50 0.50 0.54 0.54 0.51 0.51 0.51 0.52 0.61 0.61 0.54 0.48 0.41 0.38 0.42 0.43 0.39 0.44 0.42 0.44 0.47 0.50 0.52 0.44 0.43 0.36 0.37 0.28 0.40 0.31 0.23 0.27 0.32 0.32 0.31 0.29 0.29 0.29 0.28 0.28 0.26 0.26 0.27 0.28 0.27 0.27 0.27 0.29 0.31
0.50 0.48 0.48 0.49 0.49 0.49 0.49 0.52 0.52 0.56 0.57 0.57 0.50 0.45 0.43 0.42 0.33 0.31 0.29 0.34 0.36 0.41 0.44 0.44 0.40 0.46 0.50 0.48 0.42 0.39 0.31 0.31 0.39 0.28 0.24 0.25 0.30 0.30 0.28 0.28 0.25 0.26 0.26 0.25 0.25 0.26 0.26 0.24 0.25 0.26 0.26 0.28 0.30 0.32
0.49 0.48 0.47 0.47 0.47 0.46 0.48 0.51 0.52 0.55 0.52 0.42 0.37 0.30 0.34 0.32 0.34 0.33 0.31 0.33 0.38 0.41 0.41 0.41 0.38 0.39 0.41 0.36 0.36 0.27 0.32 0.33 0.24 0.20 0.18 0.25 0.27 0.25 0.26 0.24 0.22 0.22 0.24 0.24 0.23 0.23 0.23 0.25 0.25 0.27 0.28 0.29 0.30 0.30
0.50 0.48 0.46 0.45 0.45 0.46 0.50 0.50 0.53 0.56 0.48 0.38 0.39 0.30 0.33 0.40 0.40 0.43 0.44 0.40 0.44 0.46 0.40 0.39 0.37 0.36 0.32 0.29 0.30 0.28 0.24 0.20 0.19 0.16 0.21 0.22 0.24 0.23 0.22 0.21 0.21 0.21 0.22 0.21 0.24 0.24 0.25 0.25 0.25 0.27 0.30 0.31 0.33 0.35
0.58 0.58 0.55 0.55 0.50 0.50 0.50 0.52 0.54 0.54 0.46 0.40 0.40 0.36 0.38 0.37 0.36 0.37 0.39 0.41 0.48 0.44 0.42 0.38 0.33 0.29 0.25 0.25 0.22 0.19 0.18 0.15 0.17 0.21 0.23 0.22 0.21 0.21 0.21 0.21 0.22 0.23 0.25 0.26 0.27 0.27 0.27 0.27 0.26 0.28 0.31 0.32 0.35 0.36
0.64 0.58 0.63 0.59 0.61 0.58 0.54 0.51 0.47 0.43 0.38 0.37 0.37 0.41 0.39 0.35 0.36 0.41 0.44 0.44 0.48 0.39 0.33 0.32 0.25 0.23 0.28 0.22 0.19 0.21 0.18 0.22 0.24 0.25 0.25 0.24 0.22 0.22 0.23 0.24 0.25 0.24 0.24 0.25 0.25 0.26 0.27 0.27 0.28 0.28 0.28 0.34 0.36 0.40
0.52 0.57 0.64 0.61 0.59 0.56 0.53 0.48 0.40 0.39 0.32 0.37 0.37 0.39 0.40 0.43 0.42 0.45 0.47 0.47 0.44 0.40 0.36 0.30 0.33 0.25 0.23 0.20 0.20 0.25 0.30 0.29 0.29 0.29 0.27 0.23 0.23 0.26 0.29 0.28 0.29 0.28 0.27 0.28 0.28 0.28 0.29 0.30 0.31 0.33 0.35 0.38 0.39 0.41
0.53 0.59 0.61 0.60 0.58 0.50 0.42 0.42 0.45 0.32 0.34 0.37 0.39 0.43 0.46 0.47 0.51 0.50 0.48 0.48 0.48 0.46 0.39 0.34 0.29 0.27 0.27 0.30 0.31 0.33 0.34 0.32 0.29 0.29 0.29 0.28 0.28 0.30 0.32 0.30 0.29 0.27 0.28 0.29 0.30 0.30 0.30 0.30 0.31 0.35 0.37 0.40 0.40 0.44
0.58 0.58 0.60 0.61 0.57 0.41 0.38 0.40 0.50 0.38 0.33 0.38 0.44 0.42 0.44 0.45 0.47 0.48 0.47 0.45 0.41 0.38 0.32 0.30 0.29 0.32 0.32 0.34 0.34 0.35 0.35 0.35 0.33 0.30 0.28 0.30 0.31 0.30 0.30 0.30 0.29 0.30 0.31 0.33 0.33 0.34 0.33 0.33 0.37 0.37 0.42 0.43 0.43 0.47
0.58 0.56 0.55 0.51 0.47 0.45 0.41 0.40 0.39 0.40 0.41 0.39 0.43 0.44 0.43 0.47 0.45 0.44 0.42 0.44 0.38 0.35 0.33 0.36 0.34 0.37 0.39 0.39 0.41 0.39 0.35 0.31 0.28 0.26 0.25 0.26 0.31 0.31 0.30 0.31 0.32 0.33 0.32 0.32 0.31 0.31 0.31 0.31 0.36 0.42 0.44 0.43 0.48 0.50
0.55 0.60 0.51 0.51 0.43 0.41 0.39 0.45 0.41 0.44 0.40 0.39 0.39 0.41 0.39 0.38 0.39 0.41 0.43 0.36 0.33 0.33 0.34 0.31 0.30 0.30 0.29 0.26 0.24 0.25 0.27 0.26 0.27 0.29 0.29 0.28 0.24 0.25 0.25 0.24 0.25 0.26 0.27 0.27 0.31 0.31 0.33 0.34 0.39 0.43 0.45 0.45 0.50 0.48
0.57 0.56 0.50 0.47 0.37 0.35 0.36 0.46 0.35 0.35 0.31 0.33 0.35 0.32 0.33 0.35 0.37 0.40 0.29 0.28 0.27 0.29 0.28 0.25 0.24 0.24 0.22 0.24 0.24 0.23 0.23 0.22 0.22 0.23 0.25 0.27 0.28 0.28 0.28 0.27 0.26 0.24 0.23 0.26 0.29 0.34 0.39 0.42 0.41 0.42 0.43 0.45 0.47 0.46
0.47 0.40 0.37 0.35 0.36 0.32 0.38 0.34 0.36 0.34 0.33 0.28 0.26 0.25 0.27 0.27 0.30 0.23 0.18 0.17 0.19 0.22 0.21 0.21 0.22 0.22 0.23 0.23 0.23 0.24 0.25 0.25 0.24 0.23 0.24 0.24 0.24 0.25 0.26 0.25 0.27 0.29 0.31 0.34 0.35 0.38 0.40 0.40 0.42 0.41 0.43 0.45 0.46 0.44
0.28 0.29 0.31 0.28 0.34 0.30 0.29 0.29 0.27 0.27 0.25 0.25 0.23 0.22 0.22 0.25 0.18 0.17 0.17 0.19 0.22 0.23 0.24 0.24 0.24 0.24 0.21 0.21 0.22 0.23 0.25 0.24 0.23 0.22 0.24 0.24 0.23 0.25 0.27 0.30 0.32 0.35 0.39 0.37 0.37 0.39 0.39 0.40 0.41 0.42 0.45 0.46 0.45 0.45
0.23 0.29 0.26 0.26 0.26 0.23 0.23 0.20 0.20 0.20 0.21 0.21 0.21 0.23 0.23 0.20 0.15 0.14 0.16 0.20 0.23 0.24 0.23 0.23 0.23 0.22 0.23 0.24 0.22 0.22 0.25 0.28 0.27 0.25 0.28 0.33 0.33 0.32 0.32 0.33 0.34 0.37 0.46 0.46 0.45 0.42 0.42 0.42 0.42 0.43 0.46 0.48 0.48 0.47
0.22 0.24 0.29 0.34 0.29 0.27 0.25 0.25 0.24 0.21 0.18 0.17 0.20 0.20 0.19 0.14 0.13 0.17 0.24 0.26 0.25 0.27 0.28 0.29 0.30 0.30 0.30 0.31 0.33 0.33 0.35 0.35 0.35 0.35 0.38 0.39 0.40 0.41 0.40 0.36 0.34 0.39 0.45 0.45 0.46 0.46 0.44 0.44 0.43 0.44 0.47 0.50 0.51 0.49
0.27 0.26 0.21 0.25 0.24 0.25 0.20 0.20 0.18 0.17 0.18 0.21 0.20 0.15 0.14 0.14 0.16 0.23 0.27 0.28 0.30 0.31 0.32 0.34 0.36 0.35 0.33 0.33 0.34 0.34 0.35 0.37 0.38 0.38 0.39 0.40 0.42 0.42 0.42 0.43 0.43 0.44 0.46 0.48 0.51 0.53 0.51 0.49 0.49 0.49 0.50 0.50 0.50 0.51
0.26 0.28 0.25 0.20 0.21 0.21 0.20 0.19 0.18 0.20 0.23 0.21 0.17 0.16 0.18 0.24 0.29 0.27 0.28 0.31 0.32 0.33 0.31 0.30 0.30 0.32 0.33 0.35 0.35 0.36 0.36 0.35 0.32 0.30 0.30 0.33 0.37 0.43 0.50 0.48 0.47 0.49 0.52 0.53 0.54 0.55 0.55 0.55 0.54 0.54 0.54 0.52 0.52 0.51
0.27 0.30 0.24 0.21 0.19 0.18 0.23 0.27 0.24 0.27 0.27 0.28 0.27 0.25 0.25 0.28 0.30 0.34 0.32 0.31 0.31 0.29 0.29 0.29 0.30 0.30 0.28 0.29 0.31 0.34 0.38 0.38 0.38 0.36 0.35 0.37 0.40 0.45 0.46 0.48 0.49 0.51 0.54 0.53 0.52 0.51 0.52 0.53 0.54 0.53 0.51 0.50 0.48 0.46
0.32 0.30 0.26 0.25 0.24 0.26 0.27 0.28 0.29 0.28 0.28 0.26 0.28 0.26 0.26 0.27 0.30 0.32 0.32 0.32 0.30 0.30 0.29 0.28 0.29 0.30 0.30 0.30 0.31 0.31 0.33 0.39 0.42 0.44 0.45 0.46 0.47 0.47 0.47 0.48 0.49 0.51 0.51 0.51 0.50 0.50 0.50 0.50 0.50 0.48 0.46 0.45 0.44 0.45
0.29 0.26 0.24 0.22 0.24 0.29 0.32 0.29 0.28 0.26 0.26 0.25 0.24 0.26 0.27 0.25 0.23 0.28 0.32 0.32 0.30 0.28 0.29 0.30 0.29 0.29 0.34 0.35 0.36 0.37 0.39 0.40 0.42 0.43 0.44 0.45 0.46 0.46 0.47 0.48 0.49 0.50 0.50 0.50 0.50 0.49 0.48 0.48 0.47 0.46 0.46 0.46 0.46 0.46
0.26 0.26 0.27 0.25 0.24 0.25 0.28 0.27 0.25 0.24 0.24 0.24 0.24 0.25 0.26 0.25 0.23 0.30 0.34 0.35 0.33 0.32 0.32 0.33 0.34 0.35 0.35 0.36 0.37 0.38 0.39 0.40 0.41 0.42 0.42 0.43 0.43 0.42 0.43 0.43 0.44 0.45 0.45 0.45 0.45 0.46 0.46 0.47 0.47 0.47 0.46 0.45 0.44 0.43
Wind_Speed
25 26 27 28 27 25 24 28 30 34 36 37 40 48 47 48 49 55 54 54 48 43 39 36 34 46 40 38 34 32 27 28 27 27 25 21 20 21 20 19 17 18 17 17 18 17 19 19 16 16 14 14 16 17
27 27 27 29 29 27 26 26 30 32 37 37 39 42 46 47 50 55 51 49 43 43 37 37 32 34 36 40 35 36 31 32 27 26 24 22 21 22 22 20 20 19 18 17 17 18 16 16 16 21 20 19 18 20
25 27 28 29 31 30 27 27 29 31 36 37 38 39 43 47 47 53 55 53 41 38 37 35 38 35 33 35 37 34 30 32 29 29 25 23 23 22 21 23 21 23 20 22 19 19 18 20 22 20 20 21 23 26
24 25 26 28 32 32 30 30 29 32 35 37 37 37 42 46 46 53 52 54 50 35 33 34 37 33 31 33 35 34 33 28 28 27 24 22 23 22 22 21 24 22 20 22 24 23 20 22 23 24 26 28 29 29
24 24 25 27 31 34 32 31 30 32 35 36 36 36 40 43 44 50 52 49 53 44 31 33 34 33 31 31 32 32 32 31 29 28 27 27 26 23 23 23 26 24 25 23 22 24 26 27 26 27 28 28 29 30
24 24 24 25 29 35 34 32 33 33 35 36 35 37 39 41 40 44 43 46 52 49 37 28 33 29 29 30 30 32 30 30 28 26 27 26 24 26 25 27 28 28 27 27 27 27 28 28 28 28 30 31 32 33
25 25 25 25 29 34 36 33 32 33 33 35 36 37 36 42 43 42 41 47 46 43 39 36 28 32 29 30 26 26 27 26 27 26 26 26 27 27 27 29 23 25 27 29 28 29 30 29 29 30 32 33 33 33
26 27 27 26 28 33 38 35 34 32 32 34 37 35 35 37 40 39 39 46 44 39 35 34 33 34 31 30 28 28 28 27 26 25 26 27 25 27 30 30 32 32 32 31 30 30 31 31 31 33 33 33 34 35
25 29 30 30 29 33 39 37 36 34 33 34 34 33 33 34 34 37 40 42 38 36 33 35 37 34 34 30 29 28 26 25 26 27 27 27 27 28 29 29 28 29 29 30 30 30 30 31 31 31 32 32 34 36
28 29 33 34 33 36 40 38 37 35 33 34 33 32 31 33 37 39 36 35 34 32 30 30 35 32 34 30 26 25 25 25 26 27 26 28 31 33 30 28 28 29 29 29 29 29 29 29 27 27 28 30 32 33
30 32 36 39 38 40 41 41 40 38 37 35 32 30 29 37 35 35 29 31 31 29 30 30 30 28 30 27 24 24 23 24 25 25 26 26 28 30 31 29 27 26 26 25 25 24 23 24 24 26 27 29 31 33
21 25 31 38 42 43 43 43 42 40 37 36 32 29 33 29 30 29 29 29 30 28 29 31 30 27 24 25 22 22 21 23 23 23 24 26 26 25 24 24 22 20 20 20 20 21 22 23 24 26 28 30 32 33
21 23 29 38 42 43 44 45 42 39 39 34 31 31 28 26 27 29 31 29 29 31 33 33 28 25 24 22 21 21 20 23 19 20 22 24 22 24 22 21 20 19 19 19 20 20 21 22 24 27 30 32 33 34
23 27 30 36 41 43 45 46 43 42 37 31 30 28 25 26 25 30 33 34 31 34 35 32 27 23 22 20 18 18 19 18 20 21 23 20 21 21 21 20 19 19 19 19 18 20 22 24 26 29 31 32 34 34
25 29 35 38 41 44 47 46 44 41 35 31 25 24 27 24 26 30 31 34 35 35 33 27 22 21 19 17 16 15 16 17 18 18 16 19 21 20 20 20 20 20 20 21 21 23 25 27 29 31 32 33 33 32
28 36 45 47 47 47 49 46 42 37 33 28 23 22 30 28 27 29 32 35 37 34 30 22 19 20 19 17 17 17 17 17 16 17 17 18 19 19 19 19 19 20 21 23 25 26 27 29 31 33 33 34 34 33
20 24 45 60 56 52 51 44 41 31 32 22 23 27 26 27 28 30 34 37 38 34 27 22 19 20 18 19 19 19 18 15 15 17 18 19 20 20 21 21 21 22 24 25 27 29 31 32 33 34 35 34 32 30
12 21 42 65 63 55 47 43 36 29 29 26 21 25 24 28 29 31 32 35 36 28 25 19 18 19 19 20 19 18 17 16 17 17 18 19 20 21 22 23 24 25 27 28 29 30 30 31 32 33 33 32 28 25
25 36 59 68 61 51 42 37 32 27 27 28 26 23 24 28 28 29 31 31 28 25 22 20 17 18 18 18 18 18 19 20 20 20 21 22 23 24 25 25 26 27 28 28 29 30 31 32 32 32 29 26 23 21
38 47 54 54 49 43 35 33 29 27 27 26 26 25 25 26 29 28 27 26 25 22 19 17 16 15 17 17 17 18 19 20 20 21 21 22 23 24 25 26 27 29 30 31 32 32 33 32 30 27 24 21 19 19
39 40 44 46 40 33 31 30 26 28 27 25 25 24 23 25 26 26 23 22 20 18 17 16 15 14 14 16 16 17 18 19 21 22 22 23 24 26 27 28 29 30 31 32 32 32 31 29 26 22 20 18 18 18
32 35 36 34 30 27 28 27 28 26 23 23 23 23 23 24 24 21 20 17 16 16 15 16 15 15 15 16 16 18 19 21 22 23 24 25 27 27 28 28 29 30 29 29 28 26 25 23 21 20 19 17 17 16
26 28 28 25 24 23 24 26 26 24 23 23 24 21 19 19 20 20 16 16 15 16 16 15 15 16 17 17 19 21 22 23 24 26 28 30 30 30 30 30 30 29 27 26 25 24 22 21 20 20 20 19 18 17
24 24 23 21 22 24 25 23 22 21 21 21 19 19 17 17 18 16 14 13 14 14 16 17 16 16 17 19 20 22 23 25 26 26 26 26 28 29 30 30 28 26 25 23 22 22 22 21 20 20 19 19 19 19
21 17 20 23 22 23 22 21 21 20 20 20 17 16 17 16 15 14 13 12 13 12 12 12 14 15 15 16 17 18 19 20 21 22 21 21 20 20 20 20 21 21 21 22 22 22 21 21 21 20 19 19 19 19
17 15 18 18 19 19 19 19 19 19 18 15 14 15 14 13 12 12 12 11 11 11 11 12 12 13 15 16 17 17 17 17 17 18 18 18 18 19 19 19 18 18 18 19 19 19 20 19 20 19 19 19 19 19
14 15 16 15 17 18 16 16 18 16 15 13 15 14 13 12 11 11 10 10 10 10 10 11 12 12 13 12 13 14 15 15 16 17 16 16 17 18 18 18 19 20 20 20 19 19 19 19 19 19 19 19 19 19
14 16 17 17 15 14 14 14 13 13 13 14 14 12 12 11 10 10 9 9 9 8 9 9 10 11 11 12 12 12 12 12 13 14 15 17 19 20 20 21 21 21 20 19 18 17 17 17 17 17 17 17 17 18
15 17 17 15 14 14 14 14 14 13 14 17 13 11 11 12 10 10 10 10 10 10 11 11 11 12 12 12 12 13 13 13 13 14 16 16 16 16 16 17 17 16 15 15 14 14 14 14 14 14 14 14 15 16
15 17 15 15 14 14 14 14 14 14 14 14 12 11 12 12 12 12 12 12 12 12 12 12 12 12 12 12 12 12 12 13 13 13 14 13 13 13 13 12 13 13 13 13 13 13 13 13 13 14 14 14 14 15
16 15 13 12 12 12 14 14 14 15 15 14 14 14 14 14 14 13 13 12 12 12 12 13 13 13 13 13 13 13 13 12 12 12 12 12 11 11 11 12 13 14 15 15 16 16 15 15 15 15 15 15 15 15
14 12 12 11 11 12 13 12 13 13 13 14 13 13 13 13 13 13 13 13 14 15 15 14 14 14 14 14 14 15 15 15 14 14 14 14 14 14 15 15 16 16 16 16 16 16 16 16 16 16 16 16 16 15
13 13 12 11 12 13 13 12 11 10 11 12 12 13 13 13 13 12 13 13 14 14 14 15 15 16 15 15 15 16 16 15 15 15 15 15 16 16 17 17 16 16 16 16 16 16 16 16 16 16 15 14 13 12
Wind_Direction
245 241 236 231 229 228 226 222 217 211 209 206 205 203 205 202 201 201 205 207 209 210 213 209 207 205 205 210 213 208 206 213 212 215 218 221 231 228 235 231 225 226 232 240 244 249 258 244 236 253 263 261 260 263
243 240 235 229 225 225 225 221 212 210 208 206 203 202 202 202 204 202 200 201 202 206 207 208 207 207 215 211 212 208 214 212 215 214 221 224 230 230 233 237 229 237 240 243 244 253 257 240 252 255 268 270 263 270
242 237 232 228 224 223 221 215 209 207 204 203 202 202 201 202 202 200 201 199 201 204 207 207 210 212 211 209 208 210 211 213 218 218 220 228 232 232 233 238 237 239 252 251 253 252 254 254 259 264 265 267 272 278
239 235 231 228 222 218 216 212 209 206 203 202 202 202 202 201 201 201 201 203 205 204 207 212 210 207 209 209 210 212 213 216 214 216 219 226 227 231 236 242 242 245 245 251 255 257 260 262 264 267 270 274 277 278
237 233 229 227 219 214 212 211 208 205 203 204 203 202 200 199 200 202 203 204 205 204 206 206 208 210 208 209 207 209 210 212 216 219 227 230 235 239 244 249 247 245 248 252 260 260 263 266 268 270 274 276 278 280
234 230 227 224 216 211 209 209 208 206 204 203 202 199 198 196 196 195 200 204 203 206 208 206 208 207 207 208 206 209 211 215 219 224 227 233 238 238 245 249 249 251 253 256 261 262 265 270 272 273 276 278 279 280
231 228 225 221 214 210 207 206 204 204 205 205 201 196 200 198 197 197 199 198 199 202 210 212 211 211 211 204 208 208 211 216 221 225 229 233 237 241 250 251 253 254 255 255 259 266 268 270 273 276 278 279 280 280
231 226 222 219 213 208 203 203 200 200 198 196 194 194 193 194 197 200 197 195 198 202 207 210 214 210 212 212 216 220 218 220 227 229 233 236 240 245 252 253 252 258 259 259 261 265 270 273 276 279 279 281 282 282
233 226 221 217 212 205 200 199 197 196 195 193 189 190 190 193 195 193 191 189 197 206 210 213 208 212 213 215 215 218 223 227 232 234 237 238 240 246 251 250 253 255 258 261 263 266 270 273 277 279 282 283 284 285
234 227 221 215 210 202 197 196 194 193 191 186 186 187 192 191 182 181 185 194 200 208 208 204 204 210 207 211 218 221 228 230 235 236 238 244 246 247 249 250 255 259 260 260 262 265 271 275 278 282 285 287 288 289
237 231 219 210 204 197 193 191 190 187 187 187 185 185 185 177 180 185 189 190 194 197 201 201 199 200 207 210 217 223 227 230 234 235 237 244 249 247 247 251 254 256 255 256 259 263 268 274 280 285 288 290 292 293
215 206 201 197 192 190 188 187 185 187 187 185 182 180 177 182 185 190 192 192 195 194 194 193 193 193 203 207 215 218 223 227 234 231 237 249 248 246 239 239 243 246 246 248 256 264 270 276 281 287 292 293 294 295
190 186 183 183 184 185 185 184 184 184 180 181 184 182 188 187 190 192 189 191 190 191 186 184 187 195 197 206 212 217 221 228 226 237 245 249 242 233 231 231 234 239 244 253 260 267 273 280 285 290 294 296 297 296
192 188 184 183 184 185 183 183 183 182 183 185 184 192 194 192 195 194 194 191 188 181 178 180 183 192 198 204 210 215 223 229 235 242 245 239 223 222 223 225 231 238 247 254 262 270 277 283 288 293 295 298 300 297
205 200 194 189 185 184 183 182 182 184 186 184 188 197 195 189 186 186 181 180 178 175 176 177 183 189 191 199 208 211 216 231 235 239 232 218 211 215 219 227 237 245 253 259 268 276 281 286 290 293 297 298 300 298
229 218 205 194 188 182 180 180 181 185 185 188 197 191 187 185 184 184 181 177 177 177 175 181 186 192 201 204 207 216 221 233 232 226 215 210 213 220 226 234 244 255 262 268 274 281 286 289 292 295 296 298 299 296
194 196 194 188 180 176 176 175 176 180 183 185 193 190 187 185 184 183 182 179 179 179 185 192 195 203 201 214 217 221 231 231 225 219 218 220 226 231 238 245 255 263 269 274 279 283 288 290 292 293 294 294 295 293
152 173 174 173 172 170 171 175 176 180 182 187 178 180 187 182 180 179 178 179 181 187 190 196 197 206 214 215 221 223 222 221 219 223 227 233 239 241 248 256 263 268 273 277 281 285 288 291 292 293 293 290 288 286
113 129 144 154 159 161 163 169 174 172 177 177 177 175 175 174 175 175 175 177 186 191 193 203 214 218 218 220 217 220 222 226 229 236 243 247 250 251 255 259 266 271 273 277 280 284 287 290 291 293 290 286 280 277
119 130 142 148 154 157 160 163 163 165 168 170 168 166 168 168 168 170 174 180 185 192 201 210 218 212 213 217 222 226 229 229 233 240 245 248 252 255 258 264 270 272 274 278 281 283 285 286 286 286 282 277 274 272
126 130 139 146 149 154 157 159 162 163 162 164 163 163 166 167 170 172 177 184 192 202 208 209 208 211 213 220 224 226 229 235 241 247 251 255 258 260 264 268 270 273 277 281 283 282 280 278 277 274 273 273 274 268
140 139 144 149 148 150 156 157 157 159 162 160 161 162 163 168 174 179 180 185 191 196 200 205 210 216 225 230 236 240 244 249 252 256 258 261 263 265 267 270 273 276 277 279 279 278 275 270 267 265 266 272 268 265
136 151 153 147 150 152 155 159 157 156 157 158 158 162 167 170 176 179 188 201 209 211 214 220 227 234 242 245 247 250 254 257 260 262 264 265 266 266 268 271 273 275 274 275 271 272 269 264 261 262 264 264 262 260
127 132 140 149 153 150 151 154 160 163 163 167 168 165 169 173 178 188 200 207 213 218 222 230 237 245 251 255 260 262 264 265 265 265 266 268 268 266 267 268 269 269 266 268 269 269 264 260 260 261 261 257 258 259
134 130 135 136 145 151 154 155 156 155 157 157 160 166 170 175 184 195 203 204 205 214 223 231 238 246 257 262 264 267 267 263 263 265 265 263 265 266 264 262 263 266 266 267 269 266 263 259 258 259 256 256 257 258
143 141 147 148 150 150 153 156 160 159 158 160 163 166 173 178 188 200 202 211 219 227 233 240 249 260 266 267 268 269 268 261 259 258 261 261 262 264 262 262 266 269 267 268 268 265 262 258 255 254 253 255 257 259
157 157 159 161 160 159 159 160 161 168 173 177 178 179 185 194 201 206 211 222 231 239 250 256 258 261 270 274 270 265 262 259 257 260 265 265 264 263 262 262 266 271 273 271 267 265 263 259 254 252 254 257 259 260
168 171 170 170 171 172 175 179 185 191 193 190 187 198 198 206 205 207 221 230 238 247 252 252 260 265 270 275 270 261 256 255 260 266 270 272 270 267 265 266 269 271 269 265 263 263 261 258 256 254 255 258 260 260
185 180 180 181 186 190 195 199 201 202 196 190 201 209 210 207 212 219 227 237 245 247 254 255 260 263 269 276 265 255 257 261 268 272 275 279 278 272 269 266 268 264 261 260 260 259 257 256 255 252 253 257 262 263
182 184 187 192 197 200 200 197 195 192 196 199 208 209 212 219 227 237 243 248 248 248 251 255 260 261 265 275 265 258 260 267 272 273 276 279 281 274 268 265 261 258 257 257 257 260 260 257 256 257 259 263 265 266
170 173 171 176 183 189 191 192 197 201 207 212 219 221 226 234 238 240 241 245 247 251 257 257 262 260 264 269 263 258 260 269 270 272 275 274 275 271 269 269 269 266 264 262 260 259 258 256 256 260 262 263 266 267
168 169 172 175 177 176 180 184 189 197 205 211 218 224 228 233 239 243 247 249 252 256 258 260 263 263 263 265 260 258 259 263 268 269 273 274 273 273 275 275 274 270 267 264 262 260 258 257 258 259 261 266 267 263
172 173 172 172 177 183 187 190 195 203 213 219 224 227 232 239 244 246 249 253 257 262 260 262 265 265 263 261 261 259 258 261 267 269 271 271 273 277 278 276 273 270 266 264 262 259 258 257 258 260 263 263 258 252